Weather in Karavannoye

Russia / Astrakhan Oblast     45°59′19″N   47°08′07″E
temp.,
°C
wind,
m/s
gust,
m/s
humid.,
%
clouds,
%
prec.,
mm/h
press.,
hPa
HPBL,
m
1 august, sun
sun101:00+25sse355397 0.0 1011111
04:00+24sse236392 0.0 101131
07:00+26se345773 0.0 1011193
10:00+32sse44365 0.0 10121337
13:00+35se65308 0.1 10112022
16:00+36se65261 0.1 10102286
19:00+33sse65270 0.0 1010992
22:00+28sse46430 0.0 1011139
2 august, mon
mon201:00+26s33506 0.0 101139
04:00+27se2245100 0.0 101146
07:00+28e34395 0.0 1012141
10:00+34ese45207 0.0 1012892
13:00+37sse7716100 0.0 10111456
16:00+38se4513100 0.0 10101616
19:00+36se5514100 0.0 1010953
22:00+28se453966 0.0 101180
3 august, tue
tue301:00+27sse455197 0.0 101072
04:00+26se224116 0.0 101011
07:00+28w11365 0.0 101213
10:00+35ese23170 0.0 1011747
13:00+40se6890 0.0 10103726
16:00+40sse6690 0.0 10093433
19:00+38sse55110 0.0 1009929
22:00+30sse46260 0.0 101077
4 august, wed
wed401:00+28ssw46360 0.0 101089
04:00+26ssw33400 0.0 101016
07:00+28s22330 0.0 101161
10:00+36s34160 0.0 1011753
13:00+40s44104 0.0 10103083
16:00+41s44925 0.0 10094138
19:00+37sse881319 0.0 1009679
22:00+29s22325 0.0 101127
5 august, thu
thu501:00+28s22332 0.0 101118
04:00+27n45323 0.0 101162
07:00+28n484599 0.0 1012269
10:00+32n101034100 0.0 10131169
13:00+30ne5540100 0.0 1013524
16:00+32n45347 0.0 10131260
19:00+34nw44260 0.0 10122222
22:00+29ne473786 0.0 1013118